| time (UTC) | temp F | wind direction | speed knots | gust knots | rain 1hr in | rain 24hr in | rain mn in | humidity % | barometer mb |
| 20260507040123 | 55 | 344 | 0.9 | 4.3 | 0.06 | 0.26 | 0.01 | 93 | 1008.6 |
| 20260507035144 | 55 | 310 | 1.7 | 4.3 | 0.03 | 0.23 | 0.23 | 91 | 1008.7 |
| 20260507034123 | 57 | 144 | 0.9 | 4.3 | 0.00 | 0.20 | 0.20 | 88 | 1008.6 |
| 20260507033123 | 57 | 178 | 0.9 | 4.3 | 0.00 | 0.20 | 0.20 | 88 | 1008.4 |
| 20260507032123 | 57 | 82 | 0.9 | 3.5 | 0.00 | 0.20 | 0.20 | 88 | 1008.5 |
| 20260507031125 | 58 | 327 | 1.7 | 3.5 | 0.00 | 0.20 | 0.20 | 88 | 1008.5 |
| 20260507030212 | 58 | 12 | 0.9 | 3.5 | 0.00 | 0.20 | 0.20 | 86 | 1008.3 |
| 20260507030144 | 58 | 24 | 0.9 | 3.5 | 0.00 | 0.20 | 0.20 | 86 | 1008.3 |
| 20260507025123 | 58 | 327 | 1.7 | 4.3 | 0.00 | 0.20 | 0.20 | 87 | 1008.3 |
| 20260507024123 | 58 | 282 | 1.7 | 5.2 | 0.01 | 0.20 | 0.20 | 86 | 1008.0 |
| 20260507023126 | 58 | 346 | 2.6 | 6.1 | 0.01 | 0.20 | 0.20 | 86 | 1008.2 |
| 20260507022123 | 58 | 319 | 2.6 | 6.1 | 0.01 | 0.20 | 0.20 | 87 | 1007.9 |
| 20260507021123 | 58 | 320 | 1.7 | 4.3 | 0.01 | 0.20 | 0.20 | 89 | 1008.0 |
| 20260507020123 | 58 | 302 | 1.7 | 4.3 | 0.01 | 0.20 | 0.20 | 89 | 1008.0 |
| 20260507015144 | 58 | 325 | 1.7 | 3.5 | 0.01 | 0.20 | 0.20 | 89 | 1008.2 |
| 20260507014144 | 59 | 344 | 2.6 | 5.2 | 0.00 | 0.19 | 0.19 | 88 | 1008.3 |
| 20260507013123 | 60 | 306 | 2.6 | 6.1 | 0.00 | 0.19 | 0.19 | 87 | 1008.4 |
| 20260507012147 | 60 | 310 | 2.6 | 4.3 | 0.00 | 0.19 | 0.19 | 89 | 1008.1 |
| 20260507011123 | 61 | 351 | 2.6 | 4.3 | 0.00 | 0.19 | 0.19 | 88 | 1008.1 |
| 20260507010123 | 61 | 315 | 2.6 | 5.2 | 0.00 | 0.19 | 0.19 | 88 | 1008.1 |
| 20260507005123 | 62 | 319 | 2.6 | 5.2 | 0.00 | 0.19 | 0.19 | 89 | 1007.8 |
| 20260507004123 | 62 | 274 | 3.5 | 4.3 | 0.00 | 0.19 | 0.19 | 90 | 1007.8 |
| 20260507003123 | 64 | 295 | 2.6 | 7.0 | 0.00 | 0.19 | 0.19 | 91 | 1007.6 |
| 20260507002123 | 64 | 259 | 1.7 | 4.3 | 0.00 | 0.19 | 0.19 | 91 | 1007.0 |
| 20260507001124 | 64 | 263 | 1.7 | 3.5 | 0.00 | 0.19 | 0.19 | 93 | 1006.8 |
| 20260507000123 | 64 | 256 | 1.7 | 2.6 | 0.00 | 0.19 | 0.19 | 93 | 1006.8 |
| 20260506235147 | 64 | 255 | 1.7 | 2.6 | 0.00 | 0.19 | 0.19 | 93 | 1006.4 |
| 20260506234123 | 64 | 258 | 1.7 | 2.6 | 0.00 | 0.19 | 0.19 | 93 | 1006.3 |
| 20260506233144 | 65 | 254 | 1.7 | 3.5 | 0.00 | 0.19 | 0.19 | 92 | 1006.4 |
| 20260506232123 | 65 | 265 | 1.7 | 3.5 | 0.00 | 0.19 | 0.19 | 91 | 1006.3 |
| 20260506231123 | 65 | 255 | 0.9 | 2.6 | 0.00 | 0.19 | 0.19 | 91 | 1006.3 |
| 20260506230125 | 66 | 283 | 0.9 | 3.5 | 0.00 | 0.19 | 0.19 | 90 | 1006.3 |
| 20260506225123 | 66 | 257 | 0.9 | 2.6 | 0.00 | 0.19 | 0.19 | 90 | 1006.0 |
| 20260506224147 | 66 | 239 | 0.9 | 2.6 | 0.00 | 0.19 | 0.19 | 88 | 1006.0 |
| 20260506223123 | 66 | 266 | 0.0 | 1.7 | 0.00 | 0.19 | 0.19 | 89 | 1006.0 |
| 20260506222127 | 66 | 219 | 0.0 | 2.6 | 0.00 | 0.19 | 0.19 | 90 | 1006.1 |
| 20260506221123 | 66 | 270 | 0.0 | 0.0 | 0.00 | 0.19 | 0.19 | 91 | 1005.6 |
| 20260506220144 | 66 | 270 | 0.0 | 0.0 | 0.00 | 0.19 | 0.19 | 89 | 1005.6 |
| 20260506215123 | 67 | 225 | 0.0 | 0.0 | 0.00 | 0.19 | 0.19 | 88 | 1005.7 |
| 20260506214123 | 67 | 225 | 0.0 | 0.0 | 0.00 | 0.19 | 0.19 | 88 | 1005.8 |
| 20260506213123 | 67 | 244 | 0.0 | 2.6 | 0.00 | 0.19 | 0.19 | 87 | 1005.6 |
| 20260506212125 | 68 | 244 | 1.7 | 3.5 | 0.00 | 0.19 | 0.19 | 84 | 1005.4 |
| 20260506211123 | 67 | 242 | 2.6 | 3.5 | 0.00 | 0.19 | 0.19 | 84 | 1005.4 |
| 20260506210123 | 67 | 243 | 2.6 | 4.3 | 0.00 | 0.19 | 0.19 | 85 | 1005.4 |
| 20260506205123 | 67 | 241 | 2.6 | 3.5 | 0.00 | 0.19 | 0.19 | 85 | 1005.2 |
| 20260506204123 | 67 | 239 | 2.6 | 3.5 | 0.00 | 0.19 | 0.19 | 85 | 1005.3 |
| 20260506203144 | 67 | 240 | 3.5 | 4.3 | 0.00 | 0.19 | 0.19 | 84 | 1005.5 |
| 20260506202127 | 67 | 234 | 2.6 | 4.3 | 0.00 | 0.19 | 0.19 | 85 | 1005.5 |
| 20260506201125 | 67 | 225 | 1.7 | 3.5 | 0.00 | 0.19 | 0.19 | 85 | 1005.4 |
| 20260506200123 | 67 | 239 | 1.7 | 2.6 | 0.00 | 0.19 | 0.19 | 85 | 1005.4 |
| 20260506195144 | 67 | 241 | 1.7 | 3.5 | 0.00 | 0.19 | 0.19 | 85 | 1005.4 |
| 20260506194123 | 66 | 234 | 2.6 | 4.3 | 0.00 | 0.19 | 0.19 | 85 | 1005.6 |
| 20260506193123 | 66 | 238 | 3.5 | 4.3 | 0.00 | 0.19 | 0.19 | 86 | 1005.7 |
| 20260506192123 | 66 | 229 | 3.5 | 6.1 | 0.00 | 0.19 | 0.19 | 86 | 1005.6 |
| 20260506191127 | 66 | 220 | 3.5 | 6.1 | 0.00 | 0.19 | 0.19 | 87 | 1005.7 |
| 20260506190147 | 66 | 223 | 3.5 | 5.2 | 0.00 | 0.19 | 0.19 | 87 | 1005.7 |
| 20260506185123 | 65 | 226 | 2.6 | 3.5 | 0.00 | 0.19 | 0.19 | 89 | 1005.8 |
| 20260506184123 | 65 | 231 | 2.6 | 4.3 | 0.00 | 0.19 | 0.19 | 89 | 1005.8 |
| 20260506183126 | 64 | 228 | 1.7 | 4.3 | 0.00 | 0.19 | 0.19 | 91 | 1005.9 |
| 20260506182123 | 64 | 238 | 2.6 | 3.5 | 0.00 | 0.19 | 0.19 | 92 | 1006.1 |
| 20260506181144 | 63 | 242 | 1.7 | 3.5 | 0.00 | 0.19 | 0.19 | 94 | 1006.2 |
| 20260506180126 | 62 | 237 | 1.7 | 3.5 | 0.00 | 0.19 | 0.19 | 96 | 1006.2 |
| 20260506175123 | 62 | 243 | 1.7 | 2.6 | 0.00 | 0.19 | 0.19 | 96 | 1006.2 |
| 20260506174123 | 62 | 228 | 1.7 | 3.5 | 0.00 | 0.19 | 0.19 | 97 | 1006.3 |
| 20260506173123 | 61 | 237 | 1.7 | 3.5 | 0.00 | 0.19 | 0.19 | 97 | 1006.3 |
| 20260506172148 | 61 | 231 | 2.6 | 3.5 | 0.00 | 0.19 | 0.19 | 98 | 1006.3 |
| 20260506171123 | 61 | 243 | 2.6 | 3.5 | 0.00 | 0.19 | 0.19 | 98 | 1006.3 |
| 20260506170123 | 61 | 240 | 2.6 | 3.5 | 0.00 | 0.19 | 0.19 | 98 | 1006.1 |
| 20260506165125 | 61 | 230 | 0.9 | 2.6 | 0.00 | 0.19 | 0.19 | 99 | 1006.1 |
| 20260506164123 | 61 | 269 | 0.9 | 2.6 | 0.01 | 0.19 | 0.19 | 99 | 1006.1 |
| 20260506163123 | 61 | 257 | 0.9 | 2.6 | 0.01 | 0.19 | 0.19 | 99 | 1006.3 |
| 20260506162144 | 61 | 232 | 0.9 | 3.5 | 0.02 | 0.19 | 0.19 | 99 | 1006.5 |
| 20260506161123 | 61 | 196 | 0.0 | 2.6 | 0.03 | 0.19 | 0.19 | 99 | 1006.5 |
| 20260506160123 | 62 | 278 | 0.9 | 3.5 | 0.05 | 0.19 | 0.19 | 99 | 1006.4 |
| 20260506155123 | 62 | 256 | 0.9 | 2.6 | 0.06 | 0.19 | 0.19 | 99 | 1006.3 |
| 20260506154123 | 61 | 321 | 0.9 | 3.5 | 0.06 | 0.18 | 0.18 | 99 | 1005.6 |
| 20260506153144 | 61 | 289 | 0.9 | 2.6 | 0.07 | 0.18 | 0.18 | 99 | 1006.2 |
| 20260506152123 | 61 | 134 | 0.0 | 2.6 | 0.07 | 0.17 | 0.17 | 99 | 1007.0 |
| 20260506151123 | 61 | 239 | 0.9 | 2.6 | 0.06 | 0.16 | 0.16 | 99 | 1007.0 |
| 20260506150123 | 61 | 140 | 0.0 | 2.6 | 0.06 | 0.14 | 0.14 | 98 | 1007.0 |
| 20260506145123 | 61 | 239 | 0.9 | 3.5 | 0.06 | 0.13 | 0.13 | 98 | 1007.2 |
| 20260506144123 | 61 | 247 | 1.7 | 4.3 | 0.08 | 0.12 | 0.12 | 97 | 1007.2 |
| 20260506143123 | 61 | 272 | 0.9 | 2.6 | 0.08 | 0.11 | 0.11 | 97 | 1006.8 |
| 20260506142123 | 61 | 250 | 0.9 | 3.5 | 0.08 | 0.10 | 0.10 | 97 | 1006.7 |
| 20260506141144 | 61 | 315 | 0.9 | 3.5 | 0.08 | 0.10 | 0.10 | 97 | 1006.7 |
| 20260506140123 | 61 | 281 | 0.0 | 1.7 | 0.06 | 0.08 | 0.08 | 97 | 1006.8 |
| 20260506135123 | 61 | 232 | 0.9 | 2.6 | 0.06 | 0.07 | 0.07 | 96 | 1006.8 |
| 20260506134123 | 61 | 17 | 0.9 | 1.7 | 0.03 | 0.04 | 0.04 | 95 | 1006.9 |
| 20260506133124 | 62 | 270 | 0.0 | 0.0 | 0.02 | 0.03 | 0.03 | 94 | 1006.9 |
| 20260506132144 | 62 | 250 | 0.0 | 1.7 | 0.02 | 0.02 | 0.02 | 92 | 1006.8 |
| 20260506131123 | 62 | 270 | 0.0 | 1.7 | 0.02 | 0.02 | 0.02 | 91 | 1006.9 |
| 20260506130123 | 62 | 231 | 0.9 | 3.5 | 0.02 | 0.02 | 0.02 | 90 | 1006.9 |
| 20260506125123 | 62 | 221 | 1.7 | 3.5 | 0.01 | 0.01 | 0.01 | 89 | 1007.1 |
| 20260506124123 | 62 | 234 | 1.7 | 2.6 | 0.01 | 0.01 | 0.01 | 87 | 1007.2 |
| 20260506123144 | 62 | 230 | 1.7 | 2.6 | 0.01 | 0.01 | 0.01 | 86 | 1007.3 |
| 20260506122122 | 62 | 228 | 2.6 | 4.3 | 0.00 | 0.00 | 0.00 | 86 | 1007.3 |
| 20260506121123 | 62 | 228 | 2.6 | 3.5 | 0.00 | 0.00 | 0.00 | 86 | 1007.2 |
| 20260506120123 | 63 | 223 | 2.6 | 3.5 | 0.00 | 0.00 | 0.00 | 84 | 1007.2 |
| 20260506115123 | 63 | 236 | 2.6 | 4.3 | 0.00 | 0.00 | 0.00 | 82 | 1006.9 |
| 20260506114123 | 64 | 236 | 1.7 | 4.3 | 0.00 | 0.00 | 0.00 | 80 | 1006.7 |
| 20260506113123 | 65 | 272 | 1.7 | 6.1 | 0.00 | 0.00 | 0.00 | 78 | 1006.7 |
| 20260506112123 | 65 | 250 | 1.7 | 3.5 | 0.00 | 0.00 | 0.00 | 78 | 1006.6 |
| 20260506111122 | 65 | 234 | 2.6 | 5.2 | 0.00 | 0.00 | 0.00 | 77 | 1006.5 |
| 20260506110123 | 65 | 223 | 1.7 | 4.3 | 0.00 | 0.00 | 0.00 | 76 | 1006.5 |
| 20260506105144 | 66 | 238 | 1.7 | 3.5 | 0.00 | 0.00 | 0.00 | 75 | 1006.3 |
| 20260506104123 | 66 | 246 | 1.7 | 2.6 | 0.00 | 0.00 | 0.00 | 75 | 1006.3 |
| 20260506103123 | 66 | 254 | 1.7 | 3.5 | 0.00 | 0.00 | 0.00 | 75 | 1006.1 |
| 20260506102143 | 66 | 244 | 1.7 | 4.3 | 0.00 | 0.00 | 0.00 | 75 | 1006.0 |
| 20260506101123 | 66 | 248 | 1.7 | 4.3 | 0.00 | 0.00 | 0.00 | 74 | 1005.8 |
| 20260506100123 | 66 | 223 | 2.6 | 4.3 | 0.00 | 0.00 | 0.00 | 74 | 1005.8 |
| 20260506095144 | 66 | 256 | 1.7 | 6.1 | 0.00 | 0.00 | 0.00 | 74 | 1005.9 |
| 20260506094123 | 66 | 258 | 1.7 | 3.5 | 0.00 | 0.00 | 0.00 | 74 | 1005.8 |
| 20260506093123 | 66 | 335 | 0.9 | 2.6 | 0.00 | 0.00 | 0.00 | 74 | 1006.0 |
| 20260506092123 | 66 | 265 | 0.9 | 2.6 | 0.00 | 0.00 | 0.00 | 74 | 1006.1 |
| 20260506091123 | 66 | 296 | 0.9 | 2.6 | 0.00 | 0.00 | 0.00 | 73 | 1006.3 |
| 20260506090143 | 66 | 256 | 0.9 | 3.5 | 0.00 | 0.00 | 0.00 | 73 | 1006.3 |
| 20260506085123 | 66 | 323 | 0.9 | 2.6 | 0.00 | 0.00 | 0.00 | 73 | 1006.2 |
| 20260506084123 | 66 | 283 | 0.9 | 2.6 | 0.00 | 0.00 | 0.00 | 72 | 1006.2 |
| 20260506083123 | 67 | 281 | 0.9 | 3.5 | 0.00 | 0.00 | 0.00 | 71 | 1006.3 |
| 20260506082123 | 67 | 260 | 1.7 | 2.6 | 0.00 | 0.00 | 0.00 | 71 | 1006.1 |
| 20260506081123 | 68 | 253 | 1.7 | 3.5 | 0.00 | 0.00 | 0.00 | 69 | 1006.2 |
| 20260506080123 | 68 | 247 | 1.7 | 3.5 | 0.00 | 0.00 | 0.00 | 68 | 1006.2 |
| 20260506073123 | 69 | 261 | 1.7 | 4.3 | 0.00 | 0.00 | 0.00 | 67 | 1006.4 |
| 20260506072122 | 69 | 252 | 1.7 | 5.2 | 0.00 | 0.00 | 0.00 | 66 | 1006.4 |
| 20260506071123 | 69 | 232 | 2.6 | 6.1 | 0.00 | 0.00 | 0.00 | 65 | 1006.5 |
| 20260506070123 | 69 | 238 | 1.7 | 3.5 | 0.00 | 0.00 | 0.00 | 65 | 1006.5 |
| 20260506062123 | 69 | 241 | 1.7 | 3.5 | 0.00 | 0.00 | 0.00 | 64 | 1007.1 |
| 20260506061123 | 69 | 214 | 1.7 | 4.3 | 0.00 | 0.00 | 0.00 | 64 | 1007.2 |
| 20260506060122 | 69 | 232 | 2.6 | 5.2 | 0.00 | 0.00 | 0.00 | 64 | 1007.2 |
| 20260506051123 | 67 | 297 | 0.9 | 2.6 | 0.00 | 0.00 | 0.00 | 63 | 1007.4 |
| 20260506050122 | 67 | 347 | 0.9 | 2.6 | 0.00 | 0.00 | 0.00 | 63 | 1007.4 |
| 20260506045123 | 67 | 37 | 0.0 | 2.6 | 0.00 | 0.00 | 0.00 | 63 | 1007.5 |
| 20260506044144 | 67 | 257 | 0.9 | 2.6 | 0.00 | 0.00 | 0.00 | 62 | 1007.4 |
| 20260506043123 | 67 | 262 | 0.9 | 2.6 | 0.00 | 0.00 | 0.00 | 62 | 1007.5 |
| 20260506042123 | 67 | 308 | 0.9 | 3.5 | 0.00 | 0.00 | 0.00 | 61 | 1007.5 |
| 20260506041123 | 67 | 8 | 0.9 | 2.6 | 0.00 | 0.00 | 0.00 | 60 | 1007.5 |